Regional Weather Roundup
Issued by NWS Burlington, VT

Home | Current Version | Previous Version | Text Only | Print | Product List | Glossary On
Versions: 1 2 3 4 5 6 7 8 9 10 11 12 13 14 15 16 17 18 19 20 21 22 23 24 25 26 27 28 29 30 31 32 33 34 35 36 37 38 39 40 41 42 43 44 45 46 47 48 49 50
000
ASUS41 KBTV 290730
RWRBTV
VERMONT REGIONAL WEATHER ROUNDUP
NATIONAL WEATHER SERVICE BURLINGTON VT
300 AM EDT FRI AUG 29 2014

NOTE: "FAIR" INDICATES FEW OR NO CLOUDS BELOW 12,000 FEET WITH NO
SIGNIFICANT WEATHER AND/OR OBSTRUCTIONS TO VISIBILITY.

* THESE REPORTS ARE NOT UNDER NWS QUALITY CONTROL AND/OR DO NOT
  REPORT WEATHER SUCH AS PRECIPITATION AND FOG.

VTZ001>019-290800-
_____VERMONT_____


CITY           SKY/WX    TMP DP  RH WIND       PRES   REMARKS
BURLINGTON     MOSUNNY   60  52  74 CALM      30.09R
MONTPELIER     SUNNY     54  51  90 NW5       30.12R
MORRISVILLE    SUNNY     51  49  92 CALM      30.10R
ST. JOHNSBURY*   N/A     52  50  93 MISG      30.06R
MIDDLEBURY*    CLOUDY    57  56  97 CALM      30.10R
RUTLAND*       CLOUDY    55  52  88 W3        30.10R
SPRINGFIELD    PTSUNNY   52  50  93 CALM      30.08R
HIGHGATE*      CLOUDY    54  53  94 CALM      30.09R
NEWPORT*       CLOUDY    56  52  86 NW5       30.09R
BENNINGTON     SUNNY     48  47  96 CALM      30.10R
SUTTON*          N/A     50 N/A N/A MISG        N/A
GALLUP MILLS*    N/A      0 N/A N/A MISG        N/A
UNION VILLAGE*   N/A     50 N/A N/A MISG        N/A
MT. MANSFIELD*   N/A     46 N/A N/A NW16        N/A

_____LAKE CHAMPLAIN_____


CITY           SKY/WX    TMP DP  RH WIND       PRES   REMARKS
BURTON ISLAND*   N/A     63  55  77 NW1         N/A
COLCHESTER RF*   N/A     63  54  72 NW10        N/A
DIAMOND ISL*     N/A     63  52  67 W13         N/A

$$

NYZ007-026>031-035-052-083-290800-
_____NORTHERN NEW YORK_____


CITY           SKY/WX    TMP DP  RH WIND       PRES   REMARKS
PLATTSBURGH    SUNNY     57  51  80 CALM      30.08R
SARANAC LAKE   CLOUDY    53  50  89 CALM      30.12R
MASSENA        SUNNY     51  51 100 CALM      30.13R
OGDENSBURG*    SUNNY     52  52 100 CALM      30.13S
POTSDAM*       SUNNY     52  52 100 SW3       30.13S
PARISHVILLE*     N/A     54 N/A N/A W2          N/A
WATERTOWN      SUNNY     48  43  82 CALM      30.14R
FT DRUM        SUNNY     48  48  99 S3        30.14R
ALBANY         SUNNY     53  49  86 CALM      30.10R
GLENS FALLS    SUNNY     60  50  69 NW8       30.09R

$$
NHZ002-005-011-290800-
_____NEW HAMPSHIRE_____


CITY           SKY/WX    TMP DP  RH WIND       PRES   REMARKS
LEBANON        MOSUNNY   53  49  86 CALM      30.07R
KEENE          SUNNY     48  39  71 SW3       30.09R
MT WASHINGTON  FOG       37  37 100 N14G24      N/A  VSB 1/16
PLYMOUTH       FAIR      58  54  86 W7        30.05R
WHITEFIELD     CLOUDY    56  52  86 CALM      30.08R

$$

_____REGIONAL QUEBEC LOCATIONS_____


CITY           SKY/WX    TMP DP  RH WIND       PRES   REMARKS
MONTREAL       MOSUNNY   55  52  88 N5        30.09R
QUEBEC CITY    PTSUNNY   50  48  93 N7        30.10R FOG
SHERBROOKE     CLOUDY    55  52  88 CALM      30.07R

_____REGIONAL ONTARIO LOCATIONS_____


CITY           SKY/WX    TMP DP  RH WIND       PRES   REMARKS
OTTAWA         SUNNY     50  50 100 W6        30.13R

______KEY______
VSB  - VISIBILITY IN MILES
WCI  - WIND CHILL INDEX
HX   - HEAT INDEX
$$
NNNN


USA.gov is the U.S. government's official web portal to all federal, state and local government web resources and services.